Tracking 19908 objects as of 18-Oct-2019
HD Live streaming from Space Station
objects crossing your sky now

COSMOS 875

Track COSMOS 875 now!
10-day predictions
COSMOS 875 is classified as:


NORAD ID: 9592
Int'l Code: 1976-118E
Perigee: 1,443.3 km
Apogee: 1,470.9 km
Inclination: 74.0 °
Period: 114.9 minutes
Semi major axis: 7828 km
RCS: 0.6944 m2 (medium)
Launch date: December 7, 1976
Source: Commonwealth of Independent States (former USSR) (CIS)
Launch site: PLESETSK MISSILE AND SPACE COMPLEX (PKMTR)
aabbcc
Your satellite tracking list
Your tracking list is empty




NASA's NSSDC Master Catalog

Two Line Element Set (TLE):
1  9592U 76118E   19290.87299315 +.00000000 +00000-0 +10209-3 0  9998
2  9592 074.0316 188.1512 0017630 178.8285 298.1703 12.53475681961143
Source of the keplerian elements: AFSPC